User: anonymous   Login
Location: Frydek-Mistek
(49.6830°N, 18.3330°E)
Time: 10:14:44
(UTC+01:00)
Language:

Courier 1B Rocket - Orbit

View from above orbital plane
View from above orbital plane
View from above satellite
View from above satellite

Ground track
Ground track

The orbit data is extracted from the following two-line orbital elements,

1    59U 60013B   16035.60734720 +.00000110 +00000-0 +24134-4 0  9998
2    59 028.2489 130.3271 0189101 220.6131 138.0169 13.52934089730452
Epoch (UTC): 04 February 2016 14:34:34
Eccentricity: 0.0189101
inclination: 28.2489°
perigee height: 921 km
apogee height: 1202 km
right ascension of ascending node: 130.3271°
argument of perigee: 220.6131°
revolutions per day: 13.52934089
mean anomaly at epoch: 138.0169°
orbit number at epoch: 73045

The dashed part of the orbit path shows where the satellite is in the earth's shadow,  

DLR